www.pogodaiklimat.ru

Погода и климат >> Архив погоды >> Россия >> Чукотка >> Эгвекинот


АРХИВ ПОГОДЫ в Эгвекиноте

Время (UTC), дата Ветер
(напр.,м/с)
 
Видим.   Явления Облачность Т
(С)
Тd
(С)
f
(%)
Тe
(С)
Тes
(С)
Комфортность P
(гПа)
Po
(гПа)
Тmin
(С)
Tmax
(С)
R
(мм)
R24
(мм)
S
(см)
09 9.09 штиль 0
{3}
20 км 3/0
[Ci fib]
+4.9 +1.4 78 +4 +4 1007.3 1004.5
12 9.09 штиль 0
{5}
20 км 3/0
[Ci fib]
+4.1 +1.1 81 +3 +3 1007.6 1004.8
15 9.09 штиль 0
{2}
20 км 3/0
[Ci fib]
+4.0 +0.8 80 +3 +3 1007.9 1005.1
18 9.09 штиль 0
{2}
20 км 3/0
[Ci fib]
+3.2 +0.1 80 +2 +2 1007.4 1004.6 +1.4
21 9.09 ЮВ 1
{3}
20 км 8/3 1000 м
[Sc Ci sp]
+8.2 +1.8 64 +8 +10 1007.0 1004.3 +1.4
00 10.09 Ю 2
{3}
20 км 10/8 1500 м
[Sc Ci sp]
+9.8 +2.4 60 +9 +9 1006.6 1003.9
03 10.09 ЮВ 2
{3}
20 км 10/8 1500 м
[Sc Ci sp]
+11.0 +2.6 56 +10 +10 1005.7 1003.0
06 10.09 штиль 0
{3}
20 км 10/10 1410 м
[Cb cap]
+10.6 +3.4 61 +10 +10 1005.2 1002.5 +11.3
09 10.09 штиль 0
{2}
10 км 10/10 1000 м
[Cb cap]
+8.3 +4.2 75 +8 +8 1005.3 1002.6
12 10.09 Ю 1
{3}
10 км 10/10 600 м
[Cb cap]
+8.3 +6.4 88 +7 +7 1004.9 1002.2
15 10.09 штиль 0
{2}
2000 м слаб. ливневой дождь 10/10 200 м
[Cb cap]
+7.3 +6.4 94 +6 +6 1004.6 1001.9
18 10.09 штиль 0
{2}
10 км слаб. ливневой дождь 10/8 300 м
[Cb cap Ac und]
+7.1 +6.2 94 +6 +6 1004.2 1001.4 +7.1 0.5
21 10.09 С 1
{2}
10 км {ливн. осадки} 10/10 900 м
[Cb cap]
+9.6 +8.4 92 +9 +9 1003.1 1000.4 +7.1
00 11.09 Ю 3
{4}
10 км слаб. ливневой дождь 10/10 200 м
[Cb cap]
+9.5 +7.6 88 +7 +7 1002.3 999.6
03 11.09 СВ 1
{6}
4000 м дымка {ливн. осадки} 10/10 1080 м
[Cb cap]
+10.1 +8.2 88 +10 +10 1001.0 998.3
06 11.09 С 2
{3}
10 км {ливн. осадки} 10/8 600 м
[Cb cap Ac und]
+9.0 +7.6 91 +7 +7 999.9 997.2 +10.5 0.4
09 11.09 СЗ 4
{7}
10 км слаб. ливневой дождь 10/8 600 м
[Cb cap Ac und]
+9.7 +6.8 82 +7 +7 998.7 996.0
12 11.09 С 4
{7}
10 км {ливн. осадки} 10/8 930 м
[Cb cap Ac und]
+9.5 +5.7 77 +7 +7 997.8 995.1
15 11.09 С 5
{9}
20 км 10/4 1000 м
[Cb cap Ac und]
+9.1 +4.1 71 +6 +6 996.3 993.6
18 11.09 СВ 6
{11}
4000 м слаб. ливневой дождь 10/6 1000 м
[Cb cap As op]
+7.9 +4.3 78 +4 +4 995.5 992.8 +7.9 1
21 11.09 С 6
{11}
4000 м слаб. ливневой дождь 10/6 600 м
[Cb cap As op]
+8.8 +4.6 75 +5 +5 995.4 992.7 +7.7
00 12.09 С 7-12
{12}
4000 м слаб. ливневой дождь 10/8 600 м
[Cb cap As op]
+9.9 +4.7 70 +6 +6 994.6 991.9
03 12.09 С 5
{11}
10 км слаб. ливневой дождь 10/8 600 м
[Cb cap Ac und]
+10.2 +5.3 72 +7 +7 993.7 991.0
06 12.09 С 5
{9}
10 км слаб. ливневой дождь 10/8 600 м
[Cb cap Ac und]
+9.5 +5.4 76 +6 +6 994.0 991.3 +11.1 20
09 12.09 С 4
{8}
10 км слаб. ливневой дождь 10/8 1000 м
[Cb cap Ac und]
+10.0 +4.8 70 +7 +7 994.2 991.5
12 12.09 С 8-13
{13}
10 км слаб. ливневой дождь 10/8 1000 м
[Cb cap Ac und]
+10.7 +4.1 64 +7 +7 993.9 991.2
15 12.09 С 9-14
{16}
10 км слаб. ливневой дождь 10/8 1000 м
[Cb cap Ac und]
+9.6 +4.2 69 +5 +5 994.2 991.5
18 12.09 СЗ 10-17
{18}
10 км слаб. ливневой дождь 10/8 1000 м
[Cb cap As op]
+9.3 +4.1 70 +5 +5 994.8 992.1 +9.1 3
21 12.09 СЗ 11-18
{19}
10 км слаб. ливневой дождь 10/6 1000 м
[Cb cap As op]
+9.7 +3.5 65 +5 +5 996.1 993.4 +9.1
00 13.09 СЗ 10-18
{19}
10 км слаб. ливневой дождь 10/8 1000 м
[Cb cap As op]
+9.8 +3.3 64 +6 +6 997.7 995.0
03 13.09 СЗ 10-18
{19}
10 км слаб. ливневой дождь 10/8 1000 м
[Cb cap As op]
+9.6 +3.6 66 +5 +5 999.6 996.9
06 13.09 С 12-19
{21}
10 км слаб. ливневой дождь 10/8 1000 м
[Cb cap As op]
+8.4 +2.1 65 +3 +3 1002.0 999.3 +10.7 1
09 13.09 С 11-18
{20}
10 км 10/8 1050 м
[Cb cap As op]
+8.5 +2.1 64 +4 +4 1004.9 1002.2
12 13.09 СЗ 10-18
{18}
10 км 10/8 1000 м
[Cb cap Ac und]
+8.9 +1.5 60 +4 +4 1005.6 1002.9
15 13.09 С 11-16
{21}
10 км 10/9 1000 м
[Cb cap Ac und]
+8.0 +1.4 63 +3 +3 1007.7 1005.0
18 13.09 СЗ 12-17
{20}
10 км 10/8 1000 м
[Cb cap Ac und]
+7.9 +0.6 60 +3 +3 1009.2 1006.5 +7.8
21 13.09 С 11-20
{22}
20 км 10/9 1380 м
[Cb cap Ac und]
+8.1 +0.8 60 +3 +3 1011.0 1008.3 +7.7
00 14.09 С 9-15
{20}
20 км 10/3 1000 м
[Sc Ci sp]
+10.0 +1.6 56 +6 +6 1012.0 1009.3
03 14.09 СЗ 9-14
{15}
20 км 10/3 1000 м
[Sc Ci sp]
+9.4 +1.5 58 +5 +5 1013.2 1010.5
06 14.09 С 6-11
{14}
20 км 10/1 1000 м
[Sc Ci sp]
+8.5 +0.7 58 +5 +5 1013.8 1011.1 +10.5
09 14.09 С 7-13
{13}
20 км 8/1 1000 м
[Sc Ac trans Ci fib]
+7.6 +0.4 60 +3 +3 1014.6 1011.9
12 14.09 С 6
{13}
20 км 10/0
[Ci fib]
+7.1 +0.3 62 +3 +3 1015.1 1012.3
15 14.09 С 4
{10}
20 км 10/0
[Ci fib]
+6.8 -0.2 61 +4 +4 1014.8 1012.0
18 14.09 С 2
{6}
20 км 10/3 1000 м
[Sc Ac trans Ci fib]
+4.1 +0.2 76 +1 +1 1014.6 1011.8 +4.1
21 14.09 СВ 3
{5}
20 км 10/3 1000 м
[Sc Ac trans Ci fib]
+8.3 -0.2 55 +6 +7 1014.3 1011.6 +4.1
00 15.09 С 2
{6}
20 км 10/3 1000 м
[Sc Ac und]
+8.1 -0.7 54 +7 +7 1012.9 1010.2
03 15.09 ЮВ 2
{4}
20 км 8/5 1000 м
[Sc Ac trans]
+9.1 -0.6 51 +8 +8 1011.2 1008.5
06 15.09 С 3
{6}
20 км 10/5 1050 м
[Sc Ac und]
+8.5 +0.7 58 +6 +6 1010.6 1007.9 +9.1
09 15.09 СЗ 4
{8}
20 км 10/5 1020 м
[Sc Ac und]
+7.4 -0.1 59 +4 +4 1010.4 1007.7
12 15.09 СЗ 4
{8}
20 км 10/8 1020 м
[Sc Ac und]
+6.5 -0.5 61 +3 +3 1010.7 1007.9
15 15.09 СЗ 5
{9}
20 км 10/8 1020 м
[Sc Ac und]
+5.8 -1.4 60 +2 +2 1010.8 1008.0
18 15.09 СЗ 6-10
{12}
20 км ясно +6.0 -1.1 60 +2 +2 1011.5 1008.7 +3.9
21 15.09 СЗ 6-10
{12}
20 км ясно +8.1 -1.2 52 +5 +5 1012.7 1010.0 +3.9
00 16.09 С 7-13
{13}
10 км 5/4 1000 м
[Cu hum Ci fib]
+9.9 -0.1 50 +7 +7 1013.1 1010.4
03 16.09 СЗ 5
{13}
10 км 8/4 1000 м
[Sc Ci fib]
+10.2 -0.1 49 +8 +8 1014.5 1011.8

 

Местоположение метеостанции Эгвекинот (Чукотка, Россия): широта 66.35 долгота -179.00 высота над уровнем моря 22 м.

В архиве по умолчанию представлена погода в Эгвекиноте за последнюю неделю. Архивные данные за месяц целиком и за предыдущие месяцы, начиная с января 2011 года, Вы можете получить, выбрав интересующий диапазон дат из раскрывающегося списка и нажав кнопку "Ввод!".


*Определитесь, кто Вы:
робот инопланетянин человек

Внимание! Время в таблицах - всемирное. Для получения местного времени необходимо прибавить поправку, которая равна 12 ч.

Смотрите также архив погоды в соседних городах и на ближайших метеорологических станциях:

Погода на Мысе Ванкарем (Чукотка, Россия) (239 км)
Погода на Мысе Шмидта (Чукотка, Россия) (280 км)
Погода в Уэлене (Чукотка, Россия) (448 км)
Погода на Острове Врангеля (Чукотка, Россия) (517 км)

Пояснения к столбцам:

Ветер - указаны скорость ветра в м/с - средняя за 10 мин, порывы в срок и между сроками (в фигурных скобках) и направление, откуда дует ветер: С - северный, СВ - северо-восточный, В - восточный, ЮВ - юго-восточный, Ю - южный, ЮЗ - юго-западный, З - западный, СЗ - северо-западный.
Видимость - горизонтальная дальность видимости в метрах или километрах. При видимости от 1 до 10 км при отсутствии осадков обычно наблюдается дымка, при ухудшении видимости до 1 км и менее - туман. В сухую погоду видимость может ухудшаться дымом, пылью или мглою.
Явления - указаны атмосферные явления, наблюдавшиеся в срок или в последний час перед сроком; фигурными скобками обозначены явления, наблюдавшиеся между сроками (за 1-3 часа до срока); квадратными скобками обозначены град или гололедные отложения с указанием их диаметра в мм.
Облачность - указаны через наклонную черту общая и нижняя облачность в баллах и высота нижней границы облаков в метрах; квадратными скобками обозначены формы облаков: Ci - перистые, Cs - перисто-слоистые, Cc - перисто-кучевые, Ac - высококучевые, As - высокослоистые, Sc - слоисто-кучевые, Ns - слоисто-дождевые, Cu - кучевые, Cb - кучево-дождевые. Подробнее классификацию облаков см. в Атласе облаков (PDF).
T - Температура воздуха - температура, измеренная на высоте 2 м над землей.
Td - Температура точки росы - температура, при понижении до которой содержащийся в воздухе водяной пар достигнет насыщения.
f - Относительная влажность воздуха - влажноcть воздуха, измеренная на высоте 2 м над землей.
Te - Эффективная температура - температура, которую ощущает одетый по сезону человек в тени. Характеристика душности погоды. При расчете учитывается влияние влажности воздуха и скорости ветра на теплоощущения человека.
Tes - Эффективная температура на солнце - температура, которую ощущает человек, с поправкой на солнечный нагрев. Характеристика знойности погоды. Зависит от высоты солнца над горизонтом, облачности и скорости ветра. Ночью, в пасмурную погоду, а также при ветре 12 м/с и более поправка равна нулю.
P - Атмосферное давление - приведенное к уровню моря атмосферное давление.
Po - Атмосферное давление - измеренное на уровне метеостанции атмосферное давление.
Tmin - Минимальная температура - минимум температуры воздуха на высоте 2 м над землей.
Tmax - Максимальная температура - максимум температуры воздуха на высоте 2 м над землей.
R - Количество осадков - Количество выпавших осадков за период времени, мм. При наведении курсора мыши на число - период времени, за который выпало указанное количество осадков.
R24 - Количество осадков - Количество выпавших осадков за 24 часа, мм.
S - Снежный покров - Высота снежного покрова, см. При наведении курсора мыши на число - состояние снежного покрова и степень покрытия местности в баллах.